Time,TemperatureF,DewpointF,PressureIn,WindDirection,WindDirectionDegrees,WindSpeedMPH,WindSpeedGustMPH,Humidity,HourlyPrecipIn,Conditions,Clouds,dailyrainin,SoftwareType,DateUTC
2013-01-05 00:07:00,26.5,21.0,29.98,SSE,155,2.0,2.0,80,0.00,,,0.00,weatherlink.com 1.10,2013-01-05 05:07:00,
2013-01-05 00:22:00,26.1,21.0,29.98,SSW,193,0.0,4.0,81,0.00,,,0.00,weatherlink.com 1.10,2013-01-05 05:22:00,
2013-01-05 00:37:00,26.2,21.0,29.98,SSW,207,1.0,3.0,82,0.00,,,0.00,weatherlink.com 1.10,2013-01-05 05:37:00,
2013-01-05 00:52:00,26.4,22.0,29.99,WNW,288,3.0,6.0,84,0.00,,,0.00,weatherlink.com 1.10,2013-01-05 05:52:00,
2013-01-05 01:07:00,26.4,21.0,29.99,South,170,5.0,6.0,81,0.00,,,0.00,weatherlink.com 1.10,2013-01-05 06:07:00,
2013-01-05 01:22:00,26.5,23.0,30.00,SSE,156,3.0,5.0,85,0.00,,,0.00,weatherlink.com 1.10,2013-01-05 06:22:00,
2013-01-05 01:37:00,26.7,23.0,30.01,ENE,75,1.0,7.0,85,0.00,,,0.00,weatherlink.com 1.10,2013-01-05 06:37:00,
2013-01-05 01:52:00,27.4,23.0,30.01,SSE,150,2.0,5.0,83,0.00,,,0.00,weatherlink.com 1.10,2013-01-05 06:52:00,
2013-01-05 02:07:00,33.8,23.0,30.01,North,5,7.0,12.0,66,0.00,,,0.00,weatherlink.com 1.10,2013-01-05 07:07:00,
2013-01-05 02:22:00,35.7,24.0,30.02,NNW,331,6.0,16.0,62,0.00,,,0.00,weatherlink.com 1.10,2013-01-05 07:22:00,
2013-01-05 02:37:00,36.0,24.0,30.02,NW,306,10.0,11.0,61,0.00,,,0.00,weatherlink.com 1.10,2013-01-05 07:37:00,
2013-01-05 02:52:00,36.4,24.0,30.02,WNW,302,4.0,12.0,60,0.00,,,0.00,weatherlink.com 1.10,2013-01-05 07:52:00,
2013-01-05 03:07:00,36.6,24.0,30.03,NW,309,11.0,17.0,60,0.00,,,0.00,weatherlink.com 1.10,2013-01-05 08:07:00,
2013-01-05 03:22:00,36.6,24.0,30.03,NW,306,9.0,16.0,60,0.00,,,0.00,weatherlink.com 1.10,2013-01-05 08:22:00,
2013-01-05 03:37:00,36.6,24.0,30.04,NE,49,3.0,16.0,60,0.00,,,0.00,weatherlink.com 1.10,2013-01-05 08:37:00,
2013-01-05 03:52:00,35.2,25.0,30.03,NW,315,2.0,11.0,66,0.00,,,0.00,weatherlink.com 1.10,2013-01-05 08:52:00,
2013-01-05 04:07:00,31.3,25.0,30.04,SSE,165,5.0,8.0,76,0.00,,,0.00,weatherlink.com 1.10,2013-01-05 09:07:00,
2013-01-05 04:23:00,31.9,24.0,30.05,WSW,257,1.0,8.0,72,0.00,,,0.00,weatherlink.com 1.10,2013-01-05 09:23:00,
2013-01-05 04:38:00,36.0,23.0,30.05,NW,319,7.0,22.0,60,0.00,,,0.00,weatherlink.com 1.10,2013-01-05 09:38:00,
2013-01-05 04:53:00,37.5,22.0,30.05,NNE,18,17.0,30.0,54,0.00,,,0.00,weatherlink.com 1.10,2013-01-05 09:53:00,
2013-01-05 05:08:00,37.6,22.0,30.06,NW,305,10.0,20.0,54,0.00,,,0.00,weatherlink.com 1.10,2013-01-05 10:08:00,
2013-01-05 05:23:00,37.5,22.0,30.07,NNW,338,12.0,16.0,54,0.00,,,0.00,weatherlink.com 1.10,2013-01-05 10:23:00,
2013-01-05 05:38:00,37.7,23.0,30.09,NNE,13,7.0,24.0,55,0.00,,,0.00,weatherlink.com 1.10,2013-01-05 10:38:00,
2013-01-05 05:53:00,37.7,22.0,30.10,North,351,13.0,18.0,54,0.00,,,0.00,weatherlink.com 1.10,2013-01-05 10:53:00,
2013-01-05 06:08:00,37.7,22.0,30.10,WNW,302,11.0,24.0,54,0.00,,,0.00,weatherlink.com 1.10,2013-01-05 11:08:00,
2013-01-05 06:23:00,37.8,22.0,30.11,NW,312,21.0,26.0,54,0.00,,,0.00,weatherlink.com 1.10,2013-01-05 11:23:00,
2013-01-05 06:38:00,37.7,22.0,30.13,WNW,298,18.0,23.0,54,0.00,,,0.00,weatherlink.com 1.10,2013-01-05 11:38:00,
2013-01-05 06:53:00,37.9,22.0,30.14,NW,309,10.0,13.0,54,0.00,,,0.00,weatherlink.com 1.10,2013-01-05 11:53:00,
2013-01-05 07:08:00,37.9,23.0,30.14,NW,320,7.0,14.0,55,0.00,,,0.00,weatherlink.com 1.10,2013-01-05 12:08:00,
2013-01-05 07:23:00,37.9,23.0,30.15,NW,326,15.0,15.0,56,0.00,,,0.00,weatherlink.com 1.10,2013-01-05 12:23:00,
2013-01-05 07:38:00,38.0,23.0,30.15,NNW,336,17.0,18.0,56,0.00,,,0.00,weatherlink.com 1.10,2013-01-05 12:38:00,
2013-01-05 07:53:00,38.1,23.0,30.17,NNW,333,7.0,17.0,56,0.00,,,0.00,weatherlink.com 1.10,2013-01-05 12:53:00,
2013-01-05 08:09:00,38.1,24.0,30.18,NNW,342,17.0,24.0,58,0.00,,,0.00,weatherlink.com 1.10,2013-01-05 13:09:00,
2013-01-05 08:23:00,38.1,24.0,30.20,NNW,338,10.0,23.0,58,0.00,,,0.00,weatherlink.com 1.10,2013-01-05 13:23:00,
2013-01-05 08:38:00,38.0,25.0,30.20,NNW,333,15.0,20.0,59,0.00,,,0.00,weatherlink.com 1.10,2013-01-05 13:38:00,
2013-01-05 08:53:00,38.1,25.0,30.21,WNW,300,15.0,16.0,59,0.00,,,0.00,weatherlink.com 1.10,2013-01-05 13:53:00,
2013-01-05 09:08:00,37.9,25.0,30.21,NNW,337,13.0,14.0,60,0.00,,,0.00,weatherlink.com 1.10,2013-01-05 14:08:00,
2013-01-05 09:23:00,38.0,25.0,30.22,NW,324,16.0,23.0,60,0.00,,,0.00,weatherlink.com 1.10,2013-01-05 14:23:00,
2013-01-05 09:38:00,38.0,25.0,30.23,NNW,330,9.0,23.0,61,0.00,,,0.00,weatherlink.com 1.10,2013-01-05 14:38:00,
2013-01-05 09:53:00,38.0,25.0,30.23,NNW,335,13.0,20.0,59,0.00,,,0.00,weatherlink.com 1.10,2013-01-05 14:53:00,
2013-01-05 10:08:00,38.1,24.0,30.25,NW,311,16.0,21.0,57,0.00,,,0.00,weatherlink.com 1.10,2013-01-05 15:08:00,
2013-01-05 10:23:00,38.2,24.0,30.26,NW,311,10.0,17.0,58,0.00,,,0.00,weatherlink.com 1.10,2013-01-05 15:23:00,
2013-01-05 10:38:00,38.5,24.0,30.26,WNW,283,8.0,22.0,56,0.00,,,0.00,weatherlink.com 1.10,2013-01-05 15:38:00,
2013-01-05 10:53:00,38.7,24.0,30.27,NW,304,5.0,20.0,57,0.00,,,0.00,weatherlink.com 1.10,2013-01-05 15:53:00,
2013-01-05 11:08:00,38.8,24.0,30.27,NW,326,6.0,17.0,55,0.00,,,0.00,weatherlink.com 1.10,2013-01-05 16:08:00,
2013-01-05 11:23:00,38.9,24.0,30.27,NW,309,8.0,16.0,55,0.00,,,0.00,weatherlink.com 1.10,2013-01-05 16:23:00,
2013-01-05 11:38:00,39.1,24.0,30.28,NW,311,7.0,18.0,54,0.00,,,0.00,weatherlink.com 1.10,2013-01-05 16:38:00,
2013-01-05 11:54:00,39.1,24.0,30.27,WNW,288,19.0,22.0,56,0.00,,,0.00,weatherlink.com 1.10,2013-01-05 16:54:00,
2013-01-05 12:08:00,38.9,23.0,30.26,NNW,342,12.0,28.0,53,0.00,,,0.00,weatherlink.com 1.10,2013-01-05 17:08:00,
2013-01-05 12:23:00,38.8,24.0,30.26,WNW,300,13.0,26.0,56,0.00,,,0.00,weatherlink.com 1.10,2013-01-05 17:23:00,
2013-01-05 12:38:00,38.8,23.0,30.25,North,356,13.0,27.0,53,0.00,,,0.00,weatherlink.com 1.10,2013-01-05 17:38:00,
2013-01-05 12:53:00,38.5,23.0,30.24,NNW,345,14.0,27.0,54,0.00,,,0.00,weatherlink.com 1.10,2013-01-05 17:53:00,
2013-01-05 13:09:00,38.7,23.0,30.23,NNW,335,15.0,29.0,53,0.00,,,0.00,weatherlink.com 1.10,2013-01-05 18:09:00,
2013-01-05 13:24:00,38.6,23.0,30.22,North,351,17.0,21.0,54,0.00,,,0.00,weatherlink.com 1.10,2013-01-05 18:24:00,
2013-01-05 13:39:00,38.4,22.0,30.21,North,351,15.0,19.0,53,0.00,,,0.00,weatherlink.com 1.10,2013-01-05 18:39:00,
2013-01-05 13:54:00,37.9,24.0,30.20,NNE,12,16.0,18.0,57,0.00,,,0.00,weatherlink.com 1.10,2013-01-05 18:54:00,
2013-01-05 14:09:00,37.9,24.0,30.21,North,5,14.0,16.0,57,0.00,,,0.00,weatherlink.com 1.10,2013-01-05 19:09:00,
2013-01-05 14:24:00,38.1,23.0,30.22,North,352,15.0,20.0,55,0.00,,,0.00,weatherlink.com 1.10,2013-01-05 19:24:00,
2013-01-05 14:39:00,38.1,23.0,30.23,North,349,9.0,17.0,55,0.00,,,0.00,weatherlink.com 1.10,2013-01-05 19:39:00,
2013-01-05 14:54:00,37.9,23.0,30.24,NNW,340,12.0,14.0,56,0.00,,,0.00,weatherlink.com 1.10,2013-01-05 19:54:00,
2013-01-05 15:09:00,37.9,23.0,30.23,NNE,22,9.0,11.0,56,0.00,,,0.00,weatherlink.com 1.10,2013-01-05 20:09:00,
2013-01-05 15:24:00,38.4,23.0,30.24,NNE,18,10.0,11.0,54,0.00,,,0.00,weatherlink.com 1.10,2013-01-05 20:24:00,
2013-01-05 15:39:00,38.5,23.0,30.24,NE,41,7.0,10.0,53,0.00,,,0.00,weatherlink.com 1.10,2013-01-05 20:39:00,
2013-01-05 15:54:00,38.3,23.0,30.24,NE,54,9.0,10.0,54,0.00,,,0.00,weatherlink.com 1.10,2013-01-05 20:54:00,
2013-01-05 16:09:00,37.9,22.0,30.24,NE,38,7.0,9.0,54,0.00,,,0.00,weatherlink.com 1.10,2013-01-05 21:09:00,
2013-01-05 16:24:00,37.5,22.0,30.24,ENE,60,7.0,8.0,54,0.00,,,0.00,weatherlink.com 1.10,2013-01-05 21:24:00,
2013-01-05 16:39:00,37.0,22.0,30.24,ENE,57,2.0,7.0,55,0.00,,,0.00,weatherlink.com 1.10,2013-01-05 21:39:00,
2013-01-05 16:54:00,35.7,24.0,30.25,SW,231,0.0,1.0,62,0.00,,,0.00,weatherlink.com 1.10,2013-01-05 21:54:00,
2013-01-05 17:09:00,35.0,22.0,30.26,ESE,106,0.0,2.0,60,0.00,,,0.00,weatherlink.com 1.10,2013-01-05 22:09:00,
2013-01-05 17:24:00,34.6,23.0,30.27,SW,232,0.0,1.0,63,0.00,,,0.00,weatherlink.com 1.10,2013-01-05 22:24:00,
2013-01-05 17:39:00,33.5,22.0,30.27,SE,136,0.0,2.0,63,0.00,,,0.00,weatherlink.com 1.10,2013-01-05 22:39:00,
2013-01-05 17:54:00,33.2,23.0,30.28,NE,43,0.0,1.0,67,0.00,,,0.00,weatherlink.com 1.10,2013-01-05 22:54:00,
2013-01-05 18:09:00,32.1,22.0,30.29,West,280,0.0,1.0,67,0.00,,,0.00,weatherlink.com 1.10,2013-01-05 23:09:00,
2013-01-05 18:24:00,31.5,23.0,30.28,NE,44,0.0,1.0,72,0.00,,,0.00,weatherlink.com 1.10,2013-01-05 23:24:00,
2013-01-05 18:39:00,31.2,25.0,30.27,NW,318,1.0,1.0,77,0.00,,,0.00,weatherlink.com 1.10,2013-01-05 23:39:00,
2013-01-05 18:54:00,31.0,23.0,30.27,North,351,0.0,4.0,72,0.00,,,0.00,weatherlink.com 1.10,2013-01-05 23:54:00,
2013-01-05 19:09:00,30.2,24.0,30.28,NW,313,0.0,1.0,76,0.00,,,0.00,weatherlink.com 1.10,2013-01-06 00:09:00,
2013-01-05 19:24:00,30.6,24.0,30.28,WNW,288,0.0,1.0,75,0.00,,,0.00,weatherlink.com 1.10,2013-01-06 00:24:00,
2013-01-05 19:39:00,29.2,23.0,30.27,NNW,336,0.0,3.0,79,0.00,,,0.00,weatherlink.com 1.10,2013-01-06 00:39:00,
2013-01-05 19:54:00,28.8,24.0,30.27,NNW,338,0.0,1.0,81,0.00,,,0.00,weatherlink.com 1.10,2013-01-06 00:54:00,
2013-01-05 20:10:00,28.5,23.0,30.28,WNW,283,0.0,2.0,81,0.00,,,0.00,weatherlink.com 1.10,2013-01-06 01:10:00,
2013-01-05 20:25:00,28.4,23.0,30.27,NE,50,0.0,1.0,81,0.00,,,0.00,weatherlink.com 1.10,2013-01-06 01:25:00,
2013-01-05 20:40:00,28.1,23.0,30.26,WNW,293,0.0,2.0,81,0.00,,,0.00,weatherlink.com 1.10,2013-01-06 01:40:00,
2013-01-05 20:55:00,28.0,23.0,30.26,WNW,294,0.0,1.0,82,0.00,,,0.00,weatherlink.com 1.10,2013-01-06 01:55:00,
2013-01-05 21:10:00,26.8,21.0,30.26,WSW,245,1.0,4.0,80,0.00,,,0.00,weatherlink.com 1.10,2013-01-06 02:10:00,
2013-01-05 21:25:00,26.5,22.0,30.25,SW,215,0.0,1.0,82,0.00,,,0.00,weatherlink.com 1.10,2013-01-06 02:25:00,
2013-01-05 21:40:00,26.1,22.0,30.26,SSW,201,0.0,1.0,83,0.00,,,0.00,weatherlink.com 1.10,2013-01-06 02:40:00,
2013-01-05 22:10:00,26.1,23.0,30.23,South,191,0.0,0.0,87,0.00,,,0.00,weatherlink.com 1.10,2013-01-06 03:10:00,
2013-01-05 22:25:00,25.9,22.0,30.24,SSW,208,1.0,2.0,86,0.00,,,0.00,weatherlink.com 1.10,2013-01-06 03:25:00,
2013-01-05 22:40:00,26.2,22.0,30.23,SW,227,0.0,1.0,85,0.00,,,0.00,weatherlink.com 1.10,2013-01-06 03:40:00,
2013-01-05 22:55:00,26.2,23.0,30.22,South,191,0.0,1.0,87,0.00,,,0.00,weatherlink.com 1.10,2013-01-06 03:55:00,
2013-01-05 23:10:00,26.1,23.0,30.23,SSE,152,0.0,2.0,86,0.00,,,0.00,weatherlink.com 1.10,2013-01-06 04:10:00,
2013-01-05 23:25:00,26.3,23.0,30.22,WSW,249,0.0,1.0,87,0.00,,,0.00,weatherlink.com 1.10,2013-01-06 04:25:00,
2013-01-05 23:40:00,26.3,23.0,30.20,SSE,150,0.0,1.0,88,0.00,,,0.00,weatherlink.com 1.10,2013-01-06 04:40:00,
2013-01-05 23:55:00,26.4,23.0,30.21,SW,214,0.0,1.0,88,0.00,,,0.00,weatherlink.com 1.10,2013-01-06 04:55:00,